This is the latest recevied weather packets stored in our database for station/object OE3MHU-13. If no packets are shown the sender has not sent any weather packets the latest 10 day(s).
| Time | Temp. | Humidity | Pressure | Rain* | Wind** | Luminosity | Snow |
|---|---|---|---|---|---|---|---|
| 1777539658 | 11.67° C | 39% | 1032.4 hPa | 0 mm | - | - | - |
| 1777539482 | 11.67° C | 39% | 1032.3 hPa | 0 mm | - | - | - |
| 1777539472 | 11.67° C | 39% | 1032.2 hPa | 0 mm | - | - | - |
| 1777538753 | 11.67° C | 39% | 1032.2 hPa | 0 mm | - | - | - |
| 1777538451 | 11.67° C | 39% | 1032.4 hPa | 0 mm | - | - | - |
| 1777538151 | 11.67° C | 39% | 1032.4 hPa | 0 mm | - | - | - |
| 1777537851 | 11.67° C | 39% | 1032.5 hPa | 0 mm | - | - | - |
| 1777537549 | 11.67° C | 38% | 1032.5 hPa | 0 mm | - | - | - |
| 1777537250 | 11.67° C | 38% | 1032.5 hPa | 0 mm | - | - | - |
| 1777536949 | 11.11° C | 38% | 1032.6 hPa | 0 mm | - | - | - |
| 1777536647 | 11.11° C | 39% | 1032.6 hPa | 0 mm | - | - | - |
| 1777536347 | 11.11° C | 40% | 1032.7 hPa | 0 mm | - | - | - |
| 1777536261 | 10.56° C | 40% | 1032.7 hPa | 0 mm | - | - | - |
| 1777535748 | 10.56° C | 39% | 1032.7 hPa | 0 mm | - | - | - |
| 1777535448 | 10.56° C | 41% | 1032.8 hPa | 0 mm | - | - | - |
| 1777535146 | 10° C | 45% | 1032.7 hPa | 0 mm | - | - | - |
| 1777534845 | 8.89° C | 44% | 1032.7 hPa | 0 mm | - | - | - |
| 1777534543 | 8.33° C | 47% | 1032.8 hPa | 0 mm | - | - | - |
| 1777534241 | 8.33° C | 45% | 1032.8 hPa | 0 mm | - | - | - |
| 1777533941 | 8.33° C | 46% | 1032.7 hPa | 0 mm | - | - | - |
| 1777533641 | 8.33° C | 46% | 1032.7 hPa | 0 mm | - | - | - |
| 1777533341 | 7.78° C | 47% | 1032.8 hPa | 0 mm | - | - | - |
| 1777533041 | 7.78° C | 46% | 1032.9 hPa | 0 mm | - | - | - |
| 1777532739 | 7.22° C | 48% | 1032.8 hPa | 0 mm | - | - | - |
| 1777532437 | 7.22° C | 47% | 1032.8 hPa | 0 mm | - | - | - |
* Rain latest hour (hover to see other rain measurements)
** Current wind speed in m/s (hover to see current wind gust speed)